Regional Weather Roundup
Issued by NWS

Home | Current Version | Previous Version | Text Only | Print | Product List | Glossary Off
Versions: 1 2 3 4 5 6 7 8 9 10 11 12 13 14 15 16 17 18 19 20 21 22 23 24 25 26 27 28 29 30 31 32 33 34 35 36 37 38 39 40 41 42 43 44 45 46 47 48 49 50

000
ASUS44 KMEG 261510
RWRTN
TENNESSEE HOURLY STATE WEATHER ROUNDUP
NATIONAL WEATHER SERVICE MEMPHIS TN
1000 AM CDT TUE SEP 26 2017

TNZ002-004-019-021-049-052-054-088>092-261600-
WEST TENNESSEE

CITY           SKY/WX    TMP DP  RH WIND       PRES   REMARKS
MEMPHIS INTL   MOSUNNY   83  68  60 CALM      30.02R
NWS MEMPHIS      N/A     81 N/A N/A MISG        N/A
JACKSON        SUNNY     83  68  60 CALM      30.03R
DYERSBURG      SUNNY     80  70  71 CALM      30.03R
SOMERVILLE     SUNNY     81  70  69 CALM      30.02R
COVINGTON      SUNNY     79  70  73 CALM      30.02S
BOLIVAR        SUNNY     81  70  69 CALM      30.02R
PARIS          SUNNY     81  68  65 CALM      30.02R
HUNTINGDON     SUNNY     82  72  69 CALM      30.02R
LEXINGTON      SUNNY     79  70  73 CALM      30.02S
SELMER         SUNNY     81  68  65 CALM      30.02S
SAVANNAH       SUNNY     82  68  61 CALM      30.02R
$$

TNZ008-025-027-028-033-062-065-066-261600-
NORTH MIDDLE TENNESSEE

CITY           SKY/WX    TMP DP  RH WIND       PRES   REMARKS
NASHVILLE      SUNNY     80  68  66 CALM      30.04R
PORTLAND       SUNNY     79  66  65 SE3       30.03S
CLARKSVILLE    SUNNY     79  66  64 CALM      30.02S
SMYRNA         SUNNY     78  68  71 CALM      30.05S
COOKEVILLE     SUNNY     77  64  65 S5        30.05S
GALLATIN       SUNNY     77  68  73 CALM      30.05F
CROSSVILLE     SUNNY     76  61  59 SW8       30.10R
$$

TNZ061-075-076-078-094-096-097-261600-
SOUTH MIDDLE TENNESSEE

CITY           SKY/WX    TMP DP  RH WIND       PRES   REMARKS
FAYETTEVILLE   SUNNY     79  66  65 CALM      30.04S
TULLAHOMA      SUNNY     79  64  61 CALM      30.06S
WINCHESTER     SUNNY     81  64  57 CALM      30.05S
MCMINNVILLE    MOSUNNY   79  70  73 CALM      30.06R
COLUMBIA       SUNNY     79  66  65 CALM      30.01S
SHELBYVILLE    SUNNY     77  68  73 CALM      30.04S
$$

TNZ017-018-042-046-047-261600-
NORTHEAST TENNESSEE

CITY           SKY/WX    TMP DP  RH WIND       PRES   REMARKS
TRI CITIES     MOSUNNY   75  65  70 VRB3      30.07F
ELIZABETHTON   SUNNY     75  64  69 S6        30.07S
$$

TNZ012-013-036-069-073-074-261600-
CENTRAL EAST TENNESSEE

CITY           SKY/WX    TMP DP  RH WIND       PRES   REMARKS
KNOXVILLE      MOSUNNY   76  63  64 CALM      30.05S
OAK RIDGE      SUNNY     75  64  68 CALM      30.06F
DOWNTOWN KNOXV SUNNY     75  66  73 CALM      30.05S
GATLINBURG     SUNNY     75  59  57 CALM      30.04F
MORRISTOWN     MOSUNNY   77  63  61 CALM      30.05F
JACKSBORO      SUNNY     75  64  69 CALM      30.10S
$$

TNZ083-085-099-261600-
SOUTHEAST TENNESSEE

CITY           SKY/WX    TMP DP  RH WIND       PRES   REMARKS
CHATTANOOGA    SUNNY     77  65  66 CALM      30.05S
DAYTON         SUNNY     75  70  83 E5        30.04S
$$

SKY/WX REPORTED AS FAIR MEANS FEW OR NO CLOUDS BELOW
12 THOUSAND FEET.




USA.gov is the U.S. government's official web portal to all federal, state and local government web resources and services.